FW4267 Weather Reports


Display with metric or nautical units.
time (UTC)temp
F
wind
direction
speed
MPH
gust
MPH
rain 1hr
in
rain 24hr
in
rain mn
in
humidity
%
barometer
mb
20260509214025 57 107 0.0 1.0 0.00 0.00 0.00 81 1009.8
20260509213526 57 107 1.0 1.0 0.00 0.00 0.00 80 1009.8
20260509213027 58 107 1.0 1.0 0.00 0.00 0.00 80 1009.6
20260509212524 58 107 0.0 1.0 0.00 0.00 0.00 79 1009.4
20260509212026 58 109 0.0 4.0 0.00 0.00 0.00 79 1009.3
20260509211526 58 111 1.0 4.0 0.00 0.00 0.00 79 1009.2
20260509211026 58 100 1.0 2.0 0.00 0.00 0.00 78 1009.1
20260509210841 58 97 0.0 1.0 0.00 0.00 0.00 78 1009.1
20260509210025 58 97 0.0 1.0 0.00 0.00 0.00 78 1009.1
20260509205526 58 104 0.0 1.0 0.00 0.00 0.00 78 1009.1
20260509205037 59 104 0.0 1.0 0.00 0.00 0.00 77 1009.1
20260509204854 59 104 0.0 0.0 0.00 0.00 0.00 77 1009.1
20260509204024 59 104 0.0 1.0 0.00 0.00 0.00 76 1009.0
20260509203526 59 104 0.0 1.0 0.00 0.00 0.00 77 1009.0
20260509203023 59 99 0.0 3.0 0.00 0.00 0.00 76 1009.0
20260509202525 59 99 0.0 4.0 0.00 0.00 0.00 76 1009.0
20260509202024 59 123 2.0 4.0 0.00 0.00 0.00 76 1008.9
20260509201849 59 89 2.0 4.0 0.00 0.00 0.00 76 1008.7
20260509201024 59 111 2.0 3.0 0.00 0.00 0.00 76 1008.8
20260509200523 59 90 2.0 4.0 0.00 0.00 0.00 75 1008.7
20260509200024 59 104 2.0 4.0 0.00 0.00 0.00 75 1008.7
20260509195524 60 100 2.0 6.0 0.00 0.00 0.00 75 1008.7
20260509195025 60 104 2.0 6.0 0.00 0.00 0.00 74 1008.6
20260509194833 60 117 3.0 5.0 0.00 0.00 0.00 74 1008.6
20260509194026 60 110 3.0 10.0 0.00 0.00 0.00 74 1008.5
20260509193524 60 94 3.0 10.0 0.00 0.00 0.00 74 1008.5
20260509193242 60 89 4.0 10.0 0.00 0.00 0.00 74 1008.3
20260509193149 60 103 4.0 7.0 0.00 0.00 0.00 74 1008.5
20260509192023 60 89 4.0 10.0 0.00 0.00 0.00 74 1008.2
20260509191522 60 97 5.0 9.0 0.00 0.00 0.00 74 1008.2
20260509191025 61 92 5.0 13.0 0.00 0.00 0.00 74 1008.2
20260509190522 61 104 5.0 13.0 0.00 0.00 0.00 75 1008.1
20260509190028 61 100 5.0 11.0 0.00 0.00 0.00 75 1008.0
20260509185850 61 103 5.0 11.0 0.00 0.00 0.00 75 1007.9
20260509185021 61 96 6.0 11.0 0.00 0.01 0.00 75 1008.0
20260509184520 61 94 4.0 9.0 0.00 0.01 0.00 76 1007.9
20260509184024 61 94 5.0 9.0 0.00 0.01 0.00 76 1007.8
20260509183521 62 87 4.0 7.0 0.00 0.02 0.00 76 1007.9
20260509183022 62 121 4.0 7.0 0.00 0.02 0.00 76 1007.7
20260509182522 62 86 3.0 7.0 0.00 0.02 0.00 76 1007.6
20260509182022 62 102 5.0 7.0 0.00 0.02 0.00 75 1007.8
20260509181522 62 96 3.0 11.0 0.00 0.02 0.00 76 1007.7
20260509181023 62 114 5.0 11.0 0.00 0.02 0.00 75 1007.7
20260509180520 62 100 5.0 11.0 0.00 0.02 0.00 75 1007.7
20260509180019 63 110 5.0 12.0 0.00 0.02 0.00 75 1007.7
20260509175523 63 111 5.0 12.0 0.00 0.02 0.00 75 1007.8
20260509175020 63 103 5.0 15.0 0.00 0.02 0.00 75 1007.7
20260509174522 63 79 6.0 15.0 0.00 0.02 0.00 74 1007.8
20260509174020 63 114 7.0 15.0 0.00 0.02 0.00 75 1007.8
20260509173522 64 100 7.0 15.0 0.00 0.02 0.00 74 1007.8
20260509173022 64 121 9.0 13.0 0.00 0.02 0.00 74 1007.9
20260509172519 64 133 7.0 12.0 0.00 0.02 0.00 75 1007.9
20260509172020 64 123 7.0 12.0 0.00 0.02 0.00 74 1007.9
20260509171517 64 76 4.0 14.0 0.00 0.02 0.00 75 1007.8
20260509171330 64 114 6.0 14.0 0.00 0.02 0.00 75 1007.9
20260509170842 64 107 6.0 12.0 0.00 0.02 0.00 74 1007.9
20260509170021 64 117 6.0 9.0 0.00 0.02 0.00 75 1007.9
20260509165518 64 124 4.0 11.0 0.00 0.02 0.00 75 1007.9
20260509165021 64 117 7.0 11.0 0.00 0.02 0.00 75 1007.9
20260509164519 64 102 6.0 15.0 0.00 0.02 0.00 75 1008.1
20260509164018 64 100 8.0 15.0 0.00 0.02 0.00 75 1008.1
20260509163533 64 121 7.0 14.0 0.00 0.02 0.00 75 1008.2
20260509163125 64 113 9.0 14.0 0.00 0.02 0.00 75 1008.3
20260509162018 64 135 9.0 15.0 0.00 0.02 0.00 75 1008.2
20260509161519 65 96 5.0 16.0 0.00 0.02 0.00 76 1008.3
20260509161337 65 59 8.0 16.0 0.00 0.02 0.00 75 1008.3
20260509160518 65 72 7.0 14.0 0.00 0.02 0.00 75 1008.2
20260509160017 64 97 8.0 18.0 0.00 0.02 0.00 75 1008.2
20260509155517 65 120 8.0 18.0 0.00 0.02 0.00 75 1008.2
20260509155017 65 113 9.0 16.0 0.00 0.02 0.00 74 1008.3
20260509154519 65 92 8.0 17.0 0.00 0.02 0.00 74 1008.4
20260509154019 65 71 10.0 17.0 0.00 0.02 0.00 73 1008.3
20260509153516 65 128 9.0 16.0 0.00 0.02 0.00 73 1008.3
20260509153019 65 89 8.0 16.0 0.00 0.02 0.00 73 1008.1
20260509152516 65 102 9.0 14.0 0.00 0.02 0.00 73 1008.1
20260509152015 66 90 8.0 17.0 0.00 0.02 0.00 73 1008.1
20260509151518 66 116 9.0 17.0 0.00 0.02 0.00 72 1008.2
20260509151016 66 116 10.0 16.0 0.00 0.02 0.00 72 1008.3
20260509150826 66 96 8.0 16.0 0.00 0.02 0.00 72 1008.3
20260509150014 66 104 9.0 15.0 0.00 0.02 0.00 72 1008.3
20260509145515 66 90 6.0 17.0 0.00 0.02 0.00 73 1008.3
20260509145014 66 110 10.0 17.0 0.00 0.02 0.00 72 1008.4
20260509144516 67 110 9.0 15.0 0.00 0.02 0.00 73 1008.5
20260509144321 67 110 8.0 17.0 0.00 0.02 0.00 71 1008.6
20260509143511 67 93 9.0 17.0 0.00 0.02 0.00 69 1008.6
20260509143012 67 85 9.0 16.0 0.00 0.02 0.00 69 1008.7
20260509142516 67 102 10.0 16.0 0.00 0.02 0.00 69 1008.9
20260509142017 67 117 9.0 16.0 0.00 0.02 0.00 68 1008.9
20260509141513 67 93 10.0 16.0 0.00 0.02 0.00 68 1008.9
20260509141015 68 96 10.0 16.0 0.00 0.02 0.00 68 1008.8
20260509140513 68 89 9.0 17.0 0.00 0.02 0.00 68 1008.9
20260509140328 68 106 10.0 17.0 0.00 0.02 0.00 68 1009.0
20260509135513 68 130 9.0 17.0 0.00 0.02 0.00 69 1008.9
20260509135321 68 120 8.0 17.0 0.00 0.02 0.00 68 1009.0
20260509134512 68 110 7.0 13.0 0.00 0.02 0.00 69 1009.0
20260509134321 68 121 9.0 18.0 0.00 0.02 0.00 70 1009.0
20260509133514 68 99 9.0 18.0 0.00 0.02 0.00 69 1009.0
20260509133013 68 102 7.0 15.0 0.00 0.02 0.00 70 1009.1
20260509132514 68 63 9.0 15.0 0.00 0.02 0.00 70 1009.2
20260509132124 68 93 11.0 15.0 0.00 0.02 0.00 70 1009.3
20260509132119 68 111 10.0 15.0 0.00 0.02 0.00 72 1009.4
20260509132113 68 104 8.0 14.0 0.00 0.02 0.00 71 1009.2
20260509132049 68 113 9.0 15.0 0.00 0.02 0.00 70 1009.2
20260509130012 68 96 9.0 15.0 0.00 0.02 0.00 72 1009.4
20260509125512 68 63 9.0 19.0 0.00 0.02 0.00 71 1009.4
20260509125012 68 111 9.0 19.0 0.00 0.02 0.00 72 1009.4
20260509124511 68 113 10.0 17.0 0.00 0.02 0.00 71 1009.5
20260509124013 68 113 8.0 15.0 0.00 0.02 0.00 73 1009.4
20260509123512 68 124 9.0 15.0 0.00 0.02 0.00 73 1009.4
20260509123011 68 89 8.0 15.0 0.00 0.02 0.00 72 1009.4
20260509122510 68 104 11.0 15.0 0.00 0.02 0.00 70 1009.5
20260509122011 69 118 10.0 15.0 0.00 0.02 0.00 70 1009.4
20260509121511 69 96 6.0 14.0 0.00 0.02 0.00 71 1009.4
20260509121010 69 121 9.0 13.0 0.00 0.02 0.00 70 1009.4
20260509120513 69 125 8.0 16.0 0.00 0.02 0.00 69 1009.4
20260509120011 68 118 6.0 16.0 0.00 0.02 0.00 69 1009.4
20260509115513 68 114 10.0 16.0 0.00 0.02 0.00 70 1009.5
20260509115010 68 96 7.0 16.0 0.00 0.02 0.00 68 1009.7
20260509114510 68 78 9.0 16.0 0.00 0.02 0.00 68 1009.8
20260509114009 68 116 9.0 15.0 0.00 0.02 0.00 68 1009.9
20260509113509 68 93 6.0 14.0 0.00 0.02 0.00 68 1010.0
20260509113317 68 103 9.0 14.0 0.00 0.02 0.00 66 1010.1
20260509112519 68 117 8.0 12.0 0.00 0.02 0.00 68 1010.1
20260509112317 68 128 6.0 12.0 0.00 0.02 0.00 69 1010.2
20260509111509 67 107 6.0 12.0 0.00 0.02 0.00 70 1010.3
20260509111011 67 93 6.0 12.0 0.00 0.02 0.00 70 1010.3
20260509110509 67 109 8.0 12.0 0.00 0.02 0.00 70 1010.3
20260509110010 67 116 7.0 13.0 0.00 0.02 0.00 69 1010.4
20260509105635 67 107 5.0 15.0 0.00 0.02 0.00 72 1010.6
20260509105604 67 107 8.0 13.0 0.00 0.02 0.00 71 1010.5
20260509104510 67 107 8.0 15.0 0.00 0.02 0.00 71 1010.6
20260509104010 67 102 7.0 14.0 0.00 0.02 0.00 71 1010.5
20260509103510 66 111 8.0 14.0 0.00 0.02 0.00 71 1010.4
20260509103008 66 125 7.0 12.0 0.00 0.02 0.00 74 1010.5
20260509102508 66 123 5.0 13.0 0.00 0.02 0.00 72 1010.5
20260509102008 66 80 7.0 13.0 0.00 0.02 0.00 72 1010.4
20260509101508 67 128 7.0 13.0 0.00 0.02 0.00 72 1010.5
20260509101315 66 49 7.0 13.0 0.00 0.02 0.00 72 1010.6
20260509100507 66 103 6.0 13.0 0.00 0.02 0.00 73 1010.6
20260509100313 66 103 6.0 11.0 0.00 0.02 0.00 73 1010.6
20260509095507 66 93 6.0 11.0 0.00 0.02 0.00 72 1010.7
20260509095009 66 127 6.0 12.0 0.00 0.02 0.00 74 1010.9
20260509094508 65 154 5.0 12.0 0.00 0.02 0.00 74 1010.8
20260509094007 65 103 6.0 12.0 0.00 0.02 0.00 75 1010.7
20260509093818 65 107 5.0 12.0 0.00 0.02 0.00 74 1010.8
20260509093005 65 83 6.0 13.0 0.00 0.02 0.00 74 1010.7
20260509092520 65 110 6.0 13.0 0.00 0.02 0.00 75 1010.9
20260509092007 64 99 6.0 15.0 0.00 0.02 0.00 76 1010.9
20260509091817 64 106 9.0 15.0 0.00 0.02 0.00 75 1010.9
20260509091007 64 124 6.0 12.0 0.00 0.02 0.00 77 1010.9
20260509090506 64 97 5.0 14.0 0.00 0.02 0.00 76 1010.7
20260509090007 64 109 6.0 15.0 0.00 0.02 0.00 77 1010.8
20260509085506 63 106 7.0 15.0 0.00 0.02 0.00 79 1010.8
20260509085007 63 76 7.0 14.0 0.00 0.02 0.00 78 1010.8
20260509084815 63 100 6.0 9.0 0.00 0.02 0.00 78 1010.8
20260509084021 63 92 4.0 11.0 0.00 0.02 0.00 80 1010.8
20260509083507 62 111 8.0 11.0 0.00 0.02 0.00 77 1010.8
20260509083007 62 113 5.0 11.0 0.00 0.02 0.00 80 1010.9
20260509082505 62 114 5.0 11.0 0.00 0.02 0.00 81 1010.9
20260509082005 62 131 5.0 12.0 0.00 0.02 0.00 83 1011.0
20260509081832 61 93 4.0 12.0 0.00 0.02 0.00 81 1010.9
20260509081017 61 73 8.0 12.0 0.00 0.02 0.00 81 1010.9
20260509080504 61 83 6.0 10.0 0.00 0.02 0.00 83 1011.0
20260509080005 60 116 4.0 10.0 0.00 0.02 0.00 84 1010.9
20260509075506 60 92 6.0 10.0 0.00 0.02 0.00 84 1010.9
20260509075005 60 94 5.0 7.0 0.00 0.02 0.00 84 1011.0
20260509074519 60 117 4.0 7.0 0.00 0.02 0.00 85 1011.0
20260509074006 60 121 4.0 10.0 0.00 0.02 0.00 86 1011.0
20260509073812 60 114 5.0 10.0 0.00 0.02 0.00 86 1011.1
20260509073309 59 73 5.0 10.0 0.00 0.02 0.00 86 1011.1
20260509072931 59 121 7.0 12.0 0.00 0.02 0.00 86 1011.1
20260509072925 59 55 4.0 12.0 0.00 0.02 0.00 87 1011.1
20260509071813 59 113 5.0 10.0 0.00 0.02 0.00 87 1011.0
20260509071004 59 113 4.0 9.0 0.00 0.02 0.00 87 1011.1
20260509070505 58 89 4.0 6.0 0.00 0.02 0.00 87 1011.1
20260509070006 58 123 3.0 9.0 0.00 0.02 0.00 88 1011.2
20260509065504 58 99 3.0 9.0 0.00 0.02 0.00 88 1011.3
20260509065000 58 114 2.0 5.0 0.00 0.02 0.00 89 1011.3
20260509064501 58 113 2.0 4.0 0.00 0.02 0.00 90 1011.3
20260509064000 57 130 2.0 4.0 0.00 0.02 0.00 90 1011.3
20260509063502 57 94 1.0 4.0 0.00 0.02 0.00 91 1011.4
20260509063310 57 94 1.0 4.0 0.00 0.02 0.00 91 1011.4
20260509062504 56 106 2.0 5.0 0.00 0.02 0.00 91 1011.4
20260509062003 56 131 2.0 5.0 0.00 0.02 0.00 92 1011.3
20260509061505 56 97 1.0 4.0 0.00 0.02 0.00 92 1011.3
20260509061002 56 96 0.0 4.0 0.00 0.02 0.00 92 1011.4
20260509060502 56 121 1.0 3.0 0.00 0.02 0.00 92 1011.3
20260509060000 56 93 0.0 2.0 0.00 0.02 0.00 92 1011.3
20260509055500 56 97 1.0 2.0 0.00 0.02 0.00 93 1011.3
20260509055002 55 121 0.0 1.0 0.00 0.02 0.00 93 1011.3
20260509054501 55 96 0.0 1.0 0.00 0.02 0.00 93 1011.3
20260509054003 55 96 0.0 1.0 0.00 0.02 0.00 93 1011.1
20260509053807 55 96 0.0 5.0 0.00 0.02 0.00 93 1011.0
20260509053001 55 96 1.0 5.0 0.00 0.02 0.00 93 1011.0
20260509052501 55 124 0.0 3.0 0.00 0.02 0.00 93 1011.0
20260509052001 55 68 1.0 3.0 0.00 0.02 0.00 93 1010.9
20260509051501 55 104 2.0 3.0 0.00 0.02 0.00 93 1010.9
20260509051000 55 113 0.0 4.0 0.00 0.02 0.00 93 1010.8
20260509050621 55 92 1.0 3.0 0.00 0.02 0.00 94 1011.1
20260509050553 55 93 1.0 4.0 0.00 0.02 0.00 94 1011.0
20260509045504 55 100 0.0 4.0 0.00 0.02 0.00 94 1011.1
20260509045000 55 121 1.0 4.0 0.00 0.02 0.00 94 1011.1
20260509044500 55 94 2.0 3.0 0.00 0.02 0.00 94 1011.1
20260509044000 55 117 1.0 2.0 0.00 0.02 0.00 94 1011.1
20260509043500 55 97 1.0 4.0 0.00 0.02 0.00 94 1011.0
20260509042959 55 104 2.0 5.0 0.00 0.02 0.00 94 1010.9
20260509042459 55 85 1.0 5.0 0.00 0.02 0.00 94 1010.8
20260509042001 54 104 2.0 5.0 0.00 0.02 0.00 94 1010.8
20260509041501 54 102 1.0 3.0 0.00 0.02 0.00 94 1010.9
20260509041001 54 117 2.0 5.0 0.00 0.02 0.00 94 1010.9
20260509040500 54 102 2.0 7.0 0.00 0.02 0.00 94 1010.8
20260509040312 54 97 3.0 7.0 0.00 0.02 0.00 94 1010.7
20260509035458 54 62 2.0 5.0 0.00 0.02 0.00 94 1010.8
20260509034957 55 94 1.0 5.0 0.00 0.02 0.00 94 1010.8
20260509034459 54 82 1.0 3.0 0.00 0.02 0.00 94 1010.9
20260509033958 54 76 0.0 3.0 0.00 0.02 0.00 94 1011.0
20260509033459 54 123 1.0 3.0 0.00 0.02 0.00 94 1011.0
20260509032958 54 97 1.0 2.0 0.00 0.02 0.00 94 1011.1
20260509032459 54 86 0.0 2.0 0.00 0.02 0.00 94 1011.0
20260509031958 54 83 0.0 3.0 0.00 0.02 0.00 94 1011.1
20260509031938 54 90 2.0 5.0 0.00 0.02 0.00 94 1011.1
20260509031932 54 106 1.0 4.0 0.00 0.02 0.00 94 1011.2
20260509030500 54 103 2.0 5.0 0.00 0.02 0.00 94 1011.0
20260509025958 54 85 1.0 2.0 0.00 0.02 0.00 94 1011.0
20260509025457 54 123 1.0 2.0 0.00 0.02 0.00 94 1011.0
20260509025000 54 109 1.0 3.0 0.00 0.02 0.00 94 1011.1
20260509024458 54 87 2.0 4.0 0.00 0.02 0.00 94 1011.1
20260509023958 54 99 2.0 4.0 0.00 0.02 0.00 94 1011.0
20260509023804 54 103 1.0 2.0 0.00 0.02 0.00 94 1011.0
20260509022957 55 111 0.0 2.0 0.00 0.02 0.00 94 1011.0
20260509022456 55 100 0.0 3.0 0.00 0.02 0.00 93 1011.1
20260509021956 55 113 0.0 3.0 0.00 0.02 0.00 93 1011.3
20260509021458 55 89 2.0 4.0 0.00 0.02 0.00 94 1011.3
20260509020957 55 99 1.0 4.0 0.00 0.02 0.00 94 1011.3
20260509020457 55 120 2.0 3.0 0.00 0.02 0.00 94 1011.3
20260509015957 55 121 2.0 3.0 0.00 0.02 0.00 94 1011.3
20260509015457 55 113 0.0 3.0 0.00 0.02 0.00 94 1011.4
20260509014957 55 103 2.0 4.0 0.00 0.02 0.00 94 1011.4
20260509014458 55 99 1.0 4.0 0.00 0.02 0.00 94 1011.4
20260509014308 55 125 1.0 4.0 0.00 0.02 0.00 94 1011.5
20260509013456 55 100 1.0 3.0 0.00 0.02 0.00 93 1011.4
20260509012957 55 79 1.0 4.0 0.00 0.02 0.00 94 1011.4
20260509012456 55 111 2.0 6.0 0.00 0.02 0.00 93 1011.5
20260509011958 55 104 2.0 6.0 0.00 0.02 0.00 94 1011.5
20260509011456 55 100 1.0 5.0 0.00 0.02 0.00 94 1011.5
20260509010955 55 114 1.0 3.0 0.00 0.02 0.00 94 1011.5
20260509010455 55 97 2.0 3.0 0.00 0.02 0.00 94 1011.8
20260509005953 55 128 1.0 4.0 0.00 0.02 0.00 94 1011.8
20260509005808 55 99 1.0 4.0 0.00 0.02 0.00 94 1011.8
20260509004955 55 93 0.0 4.0 0.00 0.02 0.00 93 1011.6
20260509004806 56 120 2.0 6.0 0.00 0.02 0.00 94 1011.8
20260509004309 56 96 1.0 6.0 0.00 0.02 0.00 93 1011.9
20260509003455 55 106 2.0 4.0 0.00 0.02 0.00 93 1011.8
20260509002954 56 92 2.0 6.0 0.00 0.02 0.00 93 1011.9
20260509002454 56 106 2.0 6.0 0.00 0.02 0.00 93 1011.8
20260509001953 56 104 2.0 3.0 0.00 0.02 0.00 93 1011.6
20260509001451 56 111 1.0 3.0 0.00 0.02 0.00 93 1011.8
20260509001302 56 109 1.0 4.0 0.00 0.02 0.00 93 1011.6
20260509000456 56 92 2.0 6.0 0.00 0.02 0.00 93 1011.6
20260508235956 56 97 3.0 6.0 0.00 0.02 0.00 93 1011.8
20260508235453 56 125 2.0 6.0 0.00 0.02 0.00 92 1011.9
20260508234953 56 124 3.0 5.0 0.00 0.02 0.00 92 1011.8
20260508234454 56 103 2.0 3.0 0.00 0.02 0.00 92 1012.0
20260508233955 56 87 2.0 4.0 0.00 0.02 0.00 92 1012.0
20260508233453 56 110 1.0 4.0 0.00 0.02 0.00 92 1012.0
20260508232952 56 114 1.0 5.0 0.00 0.02 0.00 92 1012.1
20260508232453 56 117 2.0 5.0 0.00 0.02 0.00 92 1012.1
20260508231953 56 109 1.0 4.0 0.00 0.02 0.00 92 1011.9
20260508231454 56 92 2.0 3.0 0.00 0.02 0.00 91 1011.9
20260508230953 56 99 1.0 3.0 0.00 0.02 0.00 91 1012.0
20260508230453 56 104 1.0 4.0 0.00 0.02 0.00 91 1012.1
20260508225952 56 102 1.0 5.0 0.00 0.02 0.00 91 1012.0
20260508225452 57 92 2.0 5.0 0.00 0.02 0.00 91 1012.1
20260508225300 57 110 1.0 5.0 0.00 0.02 0.00 91 1012.0
20260508224801 57 68 3.0 5.0 0.00 0.02 0.00 91 1012.0
20260508223953 57 100 2.0 6.0 0.00 0.02 0.00 91 1012.1
20260508223452 57 94 4.0 6.0 0.00 0.02 0.00 91 1012.0
20260508222957 57 94 2.0 7.0 0.00 0.02 0.00 90 1012.0
20260508222452 57 107 4.0 9.0 0.00 0.02 0.00 90 1012.0
20260508221951 57 94 5.0 9.0 0.00 0.02 0.00 90 1012.0
20260508221449 57 96 3.0 6.0 0.00 0.02 0.00 90 1012.1
20260508221259 57 110 3.0 7.0 0.00 0.02 0.00 90 1012.0
20260508220829 57 110 3.0 7.0 0.00 0.02 0.00 90 1012.0
20260508215950 57 102 3.0 7.0 0.00 0.02 0.02 89 1012.0
20260508215452 57 79 3.0 9.0 0.00 0.02 0.02 89 1012.0
20260508214951 57 109 4.0 9.0 0.00 0.02 0.02 89 1011.9
20260508214453 57 102 2.0 6.0 0.00 0.02 0.02 88 1011.9